Погода в Судиславле

Россия / Костромская область     57°52′54″N   41°42′38″E
темп.,
°C
ветер,
м/с
пор.,
м/с
влажн.,
%
обл.,
%
осадки,
мм/ч
давл.,
гПа
погр.,
м
14 апреля, ср
ср1400:00+8ю3108162 0.0 1024150
03:00+8ю3117841 0.0 1024184
06:00+8ю313805 0.0 1023226
09:00+13ю4126755 0.0 1022349
12:00+17ю595593 0.0 1021661
15:00+18ю4852100 0.0 10201167
18:00+14ююв3867100 0.0 1019175
21:00+10ю3975100 0.0 1020143
15 апреля, чт
чт1500:00+8ююз2573100 0.0 101966
03:00+7зюз2277100 0.0 101910
06:00+6с239087 0.0 102065
09:00+10ссв4585100 0.0 1020492
12:00+9ссв5781100 0.0 1022652
15:00+7св51082100 0.0 1023639
18:00+6св61382100 0.0 1025651
21:00+5всв51382100 0.0 1026616
16 апреля, пт
пт1600:00+5св5128288 0.0 1026661
03:00+3всв5127168 0.0 1027541
06:00+2всв5137265 0.0 1028514
09:00+6всв510535 0.0 1029671
12:00+9всв57385 0.0 10291067
15:00+11всв57355 0.0 10291269
18:00+9всв48444 0.0 1029729
21:00+4всв310655 0.0 1030228
17 апреля, сб
сб1700:00+3всв39723 0.0 1031200
03:00+1всв39773 0.0 1032176
06:00+1всв39775 0.0 1033193
09:00+7всв37525 0.0 1033589
12:00+10всв45385 0.0 10321290
15:00+12св45361 0.0 10311560
18:00+10св36470 0.0 1031262
21:00+5св24660 0.0 103169
18 апреля, вс
вс1800:00+4св25750 0.0 103279
03:00+3св24800 0.0 103274
06:00+2св25800 0.0 103395
09:00+8св34574 0.0 1032518
12:00+12св344616 0.0 10321645
15:00+13св443958 0.0 10311919
18:00+11св365053 0.0 1031392
21:00+7в410705 0.0 1033368